Вернуться в каталог

HULIANWANG DIGUI-45

АктивенСвязьLEO
NORAD 65048·PAYLOAD·🇨🇳 China

Запущен Jul 30, 2025 с Wenchang Space Launch Site

Loading…

Ближайшие Пролёты (ближайшие 24 часа)

TLE

СвежийSource: Space-Track

Эпоха: Sep 14, 2026, 21:19 UTC

1 65048U 25162F   26257.88855699 -.00000077  00000-0  10217-3 0  9998
2 65048  50.0052 303.9889 0000707 260.0033 100.0759 13.29326621 55293

Отслеживайте HULIANWANG DIGUI-45 в реальном времени с AllMySat

Download on the App Store